owner,sensor,date,latitude,longitude,vertical_datum,sea_water_temperature,qcFlag 
ENP,ioos.station.NOAA.NDBC:TCVF1:1,2017-10-27T19:00:00Z,25.2130,-80.5330,1.0,24.11,2 
ENP,ioos.station.NOAA.NDBC:TCVF1:1,2017-10-27T20:00:00Z,25.2130,-80.5330,1.0,24.33,2 
ENP,ioos.station.NOAA.NDBC:TCVF1:1,2017-10-27T21:00:00Z,25.2130,-80.5330,1.0,24.34,2 
ENP,ioos.station.NOAA.NDBC:TCVF1:1,2017-10-27T22:00:00Z,25.2130,-80.5330,1.0,24.2,2 
ENP,ioos.station.NOAA.NDBC:TCVF1:1,2017-10-27T23:00:00Z,25.2130,-80.5330,1.0,23.99,2 
ENP,ioos.station.NOAA.NDBC:TCVF1:1,2017-10-28T00:00:00Z,25.2130,-80.5330,1.0,23.78,2 
ENP,ioos.station.NOAA.NDBC:TCVF1:1,2017-10-28T03:00:00Z,25.2130,-80.5330,1.0,23.4,2 
ENP,ioos.station.NOAA.NDBC:TCVF1:1,2017-10-28T05:00:00Z,25.2130,-80.5330,1.0,23.28,2 
ENP,ioos.station.NOAA.NDBC:TCVF1:1,2017-10-28T06:00:00Z,25.2130,-80.5330,1.0,23.25,2 
ENP,ioos.station.NOAA.NDBC:TCVF1:1,2017-10-28T07:00:00Z,25.2130,-80.5330,1.0,23.23,2 
ENP,ioos.station.NOAA.NDBC:TCVF1:1,2017-10-28T08:00:00Z,25.2130,-80.5330,1.0,23.22,2 
ENP,ioos.station.NOAA.NDBC:TCVF1:1,2017-10-28T10:00:00Z,25.2130,-80.5330,1.0,23.18,2 
ENP,ioos.station.NOAA.NDBC:TCVF1:1,2017-10-28T11:00:00Z,25.2130,-80.5330,1.0,23.14,2 
ENP,ioos.station.NOAA.NDBC:TCVF1:1,2017-10-28T12:00:00Z,25.2130,-80.5330,1.0,23.13,2 
ENP,ioos.station.NOAA.NDBC:TCVF1:1,2017-10-28T13:00:00Z,25.2130,-80.5330,1.0,23.15,2 
ENP,ioos.station.NOAA.NDBC:TCVF1:1,2017-10-28T14:00:00Z,25.2130,-80.5330,1.0,23.23,2 
ENP,ioos.station.NOAA.NDBC:TCVF1:1,2017-10-28T15:00:00Z,25.2130,-80.5330,1.0,23.32,2 
ENP,ioos.station.NOAA.NDBC:TCVF1:1,2017-10-28T16:00:00Z,25.2130,-80.5330,1.0,23.44,2 
ENP,ioos.station.NOAA.NDBC:TCVF1:1,2017-10-28T17:00:00Z,25.2130,-80.5330,1.0,23.54,2 
ENP,ioos.station.NOAA.NDBC:TCVF1:1,2017-10-28T18:00:00Z,25.2130,-80.5330,1.0,23.7,2 
ENP,ioos.station.NOAA.NDBC:TCVF1:1,2017-10-28T19:00:00Z,25.2130,-80.5330,1.0,23.88,2 
ENP,ioos.station.NOAA.NDBC:TCVF1:1,2017-10-28T20:00:00Z,25.2130,-80.5330,1.0,24.51,2 
ENP,ioos.station.NOAA.NDBC:TCVF1:1,2017-10-28T21:00:00Z,25.2130,-80.5330,1.0,24.02,2 
ENP,ioos.station.NOAA.NDBC:TCVF1:1,2017-10-28T22:00:00Z,25.2130,-80.5330,1.0,24.09,2 
ENP,ioos.station.NOAA.NDBC:TCVF1:1,2017-10-28T23:00:00Z,25.2130,-80.5330,1.0,24.14,2 
ENP,ioos.station.NOAA.NDBC:TCVF1:1,2017-10-29T00:00:00Z,25.2130,-80.5330,1.0,24.13,2 
ENP,ioos.station.NOAA.NDBC:TCVF1:1,2017-10-29T03:00:00Z,25.2130,-80.5330,1.0,24.07,2 
ENP,ioos.station.NOAA.NDBC:TCVF1:1,2017-10-29T06:00:00Z,25.2130,-80.5330,1.0,24.12,2 
ENP,ioos.station.NOAA.NDBC:TCVF1:1,2017-10-29T07:00:00Z,25.2130,-80.5330,1.0,24.1,2 
ENP,ioos.station.NOAA.NDBC:TCVF1:1,2017-10-29T08:00:00Z,25.2130,-80.5330,1.0,24.28,2 
ENP,ioos.station.NOAA.NDBC:TCVF1:1,2017-10-29T11:00:00Z,25.2130,-80.5330,1.0,23.81,2 
ENP,ioos.station.NOAA.NDBC:TCVF1:1,2017-10-29T12:00:00Z,25.2130,-80.5330,1.0,24.58,2 
ENP,ioos.station.NOAA.NDBC:TCVF1:1,2017-10-29T13:00:00Z,25.2130,-80.5330,1.0,24.11,2 
ENP,ioos.station.NOAA.NDBC:TCVF1:1,2017-10-29T14:00:00Z,25.2130,-80.5330,1.0,24.34,2 
ENP,ioos.station.NOAA.NDBC:TCVF1:1,2017-10-29T15:00:00Z,25.2130,-80.5330,1.0,23.97,2 
ENP,ioos.station.NOAA.NDBC:TCVF1:1,2017-10-29T16:00:00Z,25.2130,-80.5330,1.0,24.2,2 
ENP,ioos.station.NOAA.NDBC:TCVF1:1,2017-10-29T17:00:00Z,25.2130,-80.5330,1.0,24.81,2 
ENP,ioos.station.NOAA.NDBC:TCVF1:1,2017-10-29T18:00:00Z,25.2130,-80.5330,1.0,24.53,2 
ENP,ioos.station.NOAA.NDBC:TCVF1:1,2017-10-29T19:00:00Z,25.2130,-80.5330,1.0,24.66,2 
ENP,ioos.station.NOAA.NDBC:TCVF1:1,2017-10-29T20:00:00Z,25.2130,-80.5330,1.0,24.77,2 
ENP,ioos.station.NOAA.NDBC:TCVF1:1,2017-10-29T21:00:00Z,25.2130,-80.5330,1.0,24.77,2 
ENP,ioos.station.NOAA.NDBC:TCVF1:1,2017-10-29T22:00:00Z,25.2130,-80.5330,1.0,25.45,2 
ENP,ioos.station.NOAA.NDBC:TCVF1:1,2017-10-29T23:00:00Z,25.2130,-80.5330,1.0,24.46,2 
ENP,ioos.station.NOAA.NDBC:TCVF1:1,2017-10-30T00:00:00Z,25.2130,-80.5330,1.0,25.29,2 
ENP,ioos.station.NOAA.NDBC:TCVF1:1,2017-10-30T02:00:00Z,25.2130,-80.5330,1.0,23.28,2 
ENP,ioos.station.NOAA.NDBC:TCVF1:1,2017-10-30T03:00:00Z,25.2130,-80.5330,1.0,24.14,2 
ENP,ioos.station.NOAA.NDBC:TCVF1:1,2017-10-30T05:00:00Z,25.2130,-80.5330,1.0,22.22,2 
ENP,ioos.station.NOAA.NDBC:TCVF1:1,2017-10-30T06:00:00Z,25.2130,-80.5330,1.0,21.87,2 
ENP,ioos.station.NOAA.NDBC:TCVF1:1,2017-10-30T08:00:00Z,25.2130,-80.5330,1.0,21.24,2 
ENP,ioos.station.NOAA.NDBC:TCVF1:1,2017-10-30T10:00:00Z,25.2130,-80.5330,1.0,20.86,2 
ENP,ioos.station.NOAA.NDBC:TCVF1:1,2017-10-30T11:00:00Z,25.2130,-80.5330,1.0,20.66,2 
ENP,ioos.station.NOAA.NDBC:TCVF1:1,2017-10-30T12:00:00Z,25.2130,-80.5330,1.0,20.53,2 
ENP,ioos.station.NOAA.NDBC:TCVF1:1,2017-10-30T13:00:00Z,25.2130,-80.5330,1.0,20.42,2 
ENP,ioos.station.NOAA.NDBC:TCVF1:1,2017-10-30T14:00:00Z,25.2130,-80.5330,1.0,20.43,2 
ENP,ioos.station.NOAA.NDBC:TCVF1:1,2017-10-30T15:00:00Z,25.2130,-80.5330,1.0,20.34,2 
ENP,ioos.station.NOAA.NDBC:TCVF1:1,2017-10-30T16:00:00Z,25.2130,-80.5330,1.0,20.91,2 
ENP,ioos.station.NOAA.NDBC:TCVF1:1,2017-10-30T17:00:00Z,25.2130,-80.5330,1.0,21.3,2 
ENP,ioos.station.NOAA.NDBC:TCVF1:1,2017-10-30T18:00:00Z,25.2130,-80.5330,1.0,21.71,2 
ENP,ioos.station.NOAA.NDBC:TCVF1:1,2017-10-30T19:00:00Z,25.2130,-80.5330,1.0,22.02,2 
ENP,ioos.station.NOAA.NDBC:TCVF1:1,2017-10-30T20:00:00Z,25.2130,-80.5330,1.0,22.21,2 
ENP,ioos.station.NOAA.NDBC:TCVF1:1,2017-10-30T21:00:00Z,25.2130,-80.5330,1.0,22.26,2 
ENP,ioos.station.NOAA.NDBC:TCVF1:1,2017-10-30T22:00:00Z,25.2130,-80.5330,1.0,22.12,2 
ENP,ioos.station.NOAA.NDBC:TCVF1:1,2017-10-30T23:00:00Z,25.2130,-80.5330,1.0,21.85,2 
ENP,ioos.station.NOAA.NDBC:TCVF1:1,2017-10-31T00:00:00Z,25.2130,-80.5330,1.0,21.56,2 
ENP,ioos.station.NOAA.NDBC:TCVF1:1,2017-10-31T02:00:00Z,25.2130,-80.5330,1.0,21.05,2 
ENP,ioos.station.NOAA.NDBC:TCVF1:1,2017-10-31T03:00:00Z,25.2130,-80.5330,1.0,20.85,2 
ENP,ioos.station.NOAA.NDBC:TCVF1:1,2017-10-31T05:00:00Z,25.2130,-80.5330,1.0,20.48,2 
ENP,ioos.station.NOAA.NDBC:TCVF1:1,2017-10-31T06:00:00Z,25.2130,-80.5330,1.0,20.32,2 
ENP,ioos.station.NOAA.NDBC:TCVF1:1,2017-10-31T07:00:00Z,25.2130,-80.5330,1.0,20.17,2 
ENP,ioos.station.NOAA.NDBC:TCVF1:1,2017-10-31T08:00:00Z,25.2130,-80.5330,1.0,20.05,2 
ENP,ioos.station.NOAA.NDBC:TCVF1:1,2017-10-31T11:00:00Z,25.2130,-80.5330,1.0,19.61,2 
ENP,ioos.station.NOAA.NDBC:TCVF1:1,2017-10-31T12:00:00Z,25.2130,-80.5330,1.0,19.47,2 
ENP,ioos.station.NOAA.NDBC:TCVF1:1,2017-10-31T13:00:00Z,25.2130,-80.5330,1.0,19.39,2 
ENP,ioos.station.NOAA.NDBC:TCVF1:1,2017-10-31T14:00:00Z,25.2130,-80.5330,1.0,19.48,2 
ENP,ioos.station.NOAA.NDBC:TCVF1:1,2017-10-31T15:00:00Z,25.2130,-80.5330,1.0,19.79,2 
ENP,ioos.station.NOAA.NDBC:TCVF1:1,2017-10-31T16:00:00Z,25.2130,-80.5330,1.0,20.26,2 
ENP,ioos.station.NOAA.NDBC:TCVF1:1,2017-10-31T17:00:00Z,25.2130,-80.5330,1.0,20.85,2 
ENP,ioos.station.NOAA.NDBC:TCVF1:1,2017-10-31T18:00:00Z,25.2130,-80.5330,1.0,21.1,2 
ENP,ioos.station.NOAA.NDBC:TCVF1:1,2017-10-31T19:00:00Z,25.2130,-80.5330,1.0,21.88,2 
ENP,ioos.station.NOAA.NDBC:TCVF1:1,2017-10-31T20:00:00Z,25.2130,-80.5330,1.0,22.19,2 
ENP,ioos.station.NOAA.NDBC:TCVF1:1,2017-10-31T21:00:00Z,25.2130,-80.5330,1.0,22.28,2 
ENP,ioos.station.NOAA.NDBC:TCVF1:1,2017-10-31T22:00:00Z,25.2130,-80.5330,1.0,22.11,2 
ENP,ioos.station.NOAA.NDBC:TCVF1:1,2017-10-31T23:00:00Z,25.2130,-80.5330,1.0,21.88,2 
 
DISCLAIMER: The Gulf of Mexico Coastal and Ocean Observing (GCOOS) Data Portal aggregates data from the regional data providers for the convenience of all data users. Data published on this website should not be used for navigation or certain other uses as we cannot guarantee data accuracy or availability. The data and delivery services are provided 'as is' without warranty of any kind. Data Source: Gulf of Mexico Coastal Ocean Observing System Data Portal (http://data.gcoos.org/) 
